| time (UTC) | temp F | wind direction | speed MPH | gust MPH | rain 1hr in | rain 24hr in | rain mn in | humidity % | barometer mb |
| 20260509040627 | 91 | 208 | 0.0 | 0.0 | 0.00 | 0.00 | 0.00 | 16 | 1006.6 |
| 20260509040122 | 91 | 208 | 0.0 | 0.0 | 0.00 | 0.00 | 0.00 | 16 | 1006.5 |
| 20260509035615 | 92 | 208 | 0.0 | 0.0 | 0.00 | 0.00 | 0.00 | 15 | 1006.4 |
| 20260509035116 | 92 | 206 | 0.0 | 5.0 | 0.00 | 0.00 | 0.00 | 15 | 1006.4 |
| 20260509034614 | 92 | 215 | 0.0 | 7.0 | 0.00 | 0.00 | 0.00 | 15 | 1006.3 |
| 20260509034114 | 92 | 216 | 0.0 | 7.0 | 0.00 | 0.00 | 0.00 | 15 | 1006.3 |
| 20260509033834 | 92 | 209 | 0.0 | 3.0 | 0.00 | 0.00 | 0.00 | 15 | 1006.2 |
| 20260509033114 | 92 | 217 | 0.0 | 3.0 | 0.00 | 0.00 | 0.00 | 15 | 1006.1 |
| 20260509032614 | 93 | 229 | 0.0 | 1.0 | 0.00 | 0.00 | 0.00 | 15 | 1006.0 |
| 20260509032114 | 93 | 206 | 0.0 | 0.0 | 0.00 | 0.00 | 0.00 | 15 | 1006.0 |
| 20260509032101 | 93 | 217 | 0.0 | 0.0 | 0.00 | 0.00 | 0.00 | 15 | 1005.9 |
| 20260509031112 | 93 | 216 | 0.0 | 0.0 | 0.00 | 0.00 | 0.00 | 14 | 1005.9 |
| 20260509030610 | 93 | 215 | 0.0 | 0.0 | 0.00 | 0.00 | 0.00 | 14 | 1005.9 |
| 20260509030108 | 94 | 209 | 0.0 | 0.0 | 0.00 | 0.00 | 0.00 | 14 | 1005.9 |
| 20260509025608 | 94 | 198 | 0.0 | 0.0 | 0.00 | 0.00 | 0.00 | 14 | 1005.8 |
| 20260509025107 | 94 | 222 | 0.0 | 6.0 | 0.00 | 0.00 | 0.00 | 14 | 1005.6 |
| 20260509024606 | 94 | 217 | 0.0 | 6.0 | 0.00 | 0.00 | 0.00 | 13 | 1005.6 |
| 20260509024103 | 94 | 213 | 0.0 | 2.0 | 0.00 | 0.00 | 0.00 | 13 | 1005.5 |
| 20260509023602 | 95 | 209 | 0.0 | 1.0 | 0.00 | 0.00 | 0.00 | 13 | 1005.4 |
| 20260509023101 | 95 | 209 | 0.0 | 6.0 | 0.00 | 0.00 | 0.00 | 13 | 1005.4 |
| 20260509022602 | 95 | 205 | 1.0 | 10.0 | 0.00 | 0.00 | 0.00 | 13 | 1005.2 |
| 20260509022332 | 96 | 204 | 0.0 | 10.0 | 0.00 | 0.00 | 0.00 | 13 | 1005.2 |
| 20260509021557 | 96 | 227 | 0.0 | 4.0 | 0.00 | 0.00 | 0.00 | 12 | 1005.1 |
| 20260509021052 | 96 | 197 | 1.0 | 8.0 | 0.00 | 0.00 | 0.00 | 12 | 1005.1 |
| 20260509020808 | 96 | 213 | 2.0 | 10.0 | 0.00 | 0.00 | 0.00 | 12 | 1005.1 |
| 20260509020040 | 97 | 205 | 1.0 | 10.0 | 0.00 | 0.00 | 0.00 | 12 | 1005.0 |
| 20260509015536 | 97 | 214 | 0.0 | 5.0 | 0.00 | 0.00 | 0.00 | 12 | 1005.0 |
| 20260509015036 | 97 | 209 | 1.0 | 14.0 | 0.00 | 0.00 | 0.00 | 12 | 1005.0 |
| 20260509014757 | 97 | 203 | 1.0 | 14.0 | 0.00 | 0.00 | 0.00 | 11 | 1005.0 |
| 20260509014036 | 98 | 182 | 2.0 | 15.0 | 0.00 | 0.00 | 0.00 | 12 | 1004.9 |
| 20260509013536 | 98 | 252 | 2.0 | 15.0 | 0.00 | 0.00 | 0.00 | 12 | 1004.9 |
| 20260509013036 | 98 | 215 | 1.0 | 10.0 | 0.00 | 0.00 | 0.00 | 11 | 1004.9 |
| 20260509012536 | 98 | 189 | 0.0 | 8.0 | 0.00 | 0.00 | 0.00 | 11 | 1004.9 |
| 20260509012036 | 99 | 210 | 0.0 | 3.0 | 0.00 | 0.00 | 0.00 | 11 | 1004.9 |
| 20260509011536 | 99 | 209 | 0.0 | 8.0 | 0.00 | 0.00 | 0.00 | 11 | 1005.0 |
| 20260509011036 | 99 | 229 | 1.0 | 8.0 | 0.00 | 0.00 | 0.00 | 11 | 1005.0 |
| 20260509010754 | 99 | 200 | 2.0 | 12.0 | 0.00 | 0.00 | 0.00 | 11 | 1005.0 |
| 20260509010036 | 99 | 226 | 2.0 | 12.0 | 0.00 | 0.00 | 0.00 | 11 | 1005.1 |
| 20260509005536 | 99 | 205 | 0.0 | 8.0 | 0.00 | 0.00 | 0.00 | 11 | 1005.1 |
| 20260509005035 | 99 | 238 | 1.0 | 8.0 | 0.00 | 0.00 | 0.00 | 11 | 1005.1 |
| 20260509004534 | 100 | 225 | 1.0 | 10.0 | 0.00 | 0.00 | 0.00 | 11 | 1005.2 |
| 20260509004253 | 100 | 216 | 0.0 | 10.0 | 0.00 | 0.00 | 0.00 | 11 | 1005.2 |
| 20260509003534 | 100 | 244 | 0.0 | 3.0 | 0.00 | 0.00 | 0.00 | 11 | 1005.2 |
| 20260509003256 | 100 | 154 | 0.0 | 8.0 | 0.00 | 0.00 | 0.00 | 11 | 1005.4 |
| 20260509002534 | 100 | 240 | 2.0 | 13.0 | 0.00 | 0.00 | 0.00 | 11 | 1005.4 |
| 20260509002517 | 100 | 215 | 2.0 | 20.0 | 0.00 | 0.00 | 0.00 | 11 | 1005.5 |
| 20260509001534 | 100 | 247 | 2.0 | 20.0 | 0.00 | 0.00 | 0.00 | 11 | 1005.5 |
| 20260509001033 | 100 | 169 | 2.0 | 17.0 | 0.00 | 0.00 | 0.00 | 11 | 1005.5 |
| 20260509000759 | 100 | 218 | 1.0 | 10.0 | 0.00 | 0.00 | 0.00 | 11 | 1005.5 |
| 20260509000033 | 100 | 235 | 1.0 | 14.0 | 0.00 | 0.00 | 0.00 | 11 | 1005.5 |
| 20260508235534 | 100 | 212 | 1.0 | 14.0 | 0.00 | 0.00 | 0.00 | 11 | 1005.6 |
| 20260508235033 | 100 | 252 | 1.0 | 11.0 | 0.00 | 0.00 | 0.00 | 11 | 1005.6 |
| 20260508234756 | 100 | 226 | 2.0 | 21.0 | 0.00 | 0.00 | 0.00 | 11 | 1005.7 |
| 20260508234032 | 100 | 248 | 2.0 | 21.0 | 0.00 | 0.00 | 0.00 | 11 | 1005.8 |
| 20260508233531 | 100 | 228 | 1.0 | 11.0 | 0.00 | 0.00 | 0.00 | 11 | 1005.8 |
| 20260508233257 | 100 | 252 | 1.0 | 11.0 | 0.00 | 0.00 | 0.00 | 11 | 1005.9 |
| 20260508232531 | 100 | 248 | 2.0 | 11.0 | 0.00 | 0.00 | 0.00 | 11 | 1005.9 |
| 20260508232031 | 100 | 218 | 3.0 | 15.0 | 0.00 | 0.00 | 0.00 | 11 | 1005.9 |
| 20260508231532 | 99 | 250 | 3.0 | 17.0 | 0.00 | 0.00 | 0.00 | 12 | 1006.0 |
| 20260508231032 | 100 | 211 | 1.0 | 17.0 | 0.00 | 0.00 | 0.00 | 12 | 1006.0 |
| 20260508230532 | 100 | 261 | 1.0 | 15.0 | 0.00 | 0.00 | 0.00 | 12 | 1006.1 |
| 20260508230032 | 100 | 212 | 0.0 | 11.0 | 0.00 | 0.00 | 0.00 | 12 | 1006.1 |
| 20260508225531 | 100 | 255 | 0.0 | 5.0 | 0.00 | 0.00 | 0.00 | 12 | 1006.2 |
| 20260508225252 | 99 | 271 | 0.0 | 9.0 | 0.00 | 0.00 | 0.00 | 12 | 1006.3 |
| 20260508224529 | 99 | 286 | 1.0 | 9.0 | 0.00 | 0.00 | 0.00 | 12 | 1006.3 |
| 20260508224259 | 99 | 251 | 2.0 | 20.0 | 0.00 | 0.00 | 0.00 | 13 | 1006.5 |
| 20260508223530 | 99 | 221 | 1.0 | 20.0 | 0.00 | 0.00 | 0.00 | 13 | 1006.5 |
| 20260508223029 | 99 | 240 | 1.0 | 12.0 | 0.00 | 0.00 | 0.00 | 14 | 1006.6 |
| 20260508222529 | 99 | 229 | 1.0 | 12.0 | 0.00 | 0.00 | 0.00 | 14 | 1006.8 |
| 20260508222029 | 98 | 213 | 0.0 | 5.0 | 0.00 | 0.00 | 0.00 | 14 | 1006.8 |
| 20260508221528 | 98 | 232 | 1.0 | 6.0 | 0.00 | 0.00 | 0.00 | 14 | 1006.9 |
| 20260508221305 | 98 | 221 | 1.0 | 6.0 | 0.00 | 0.00 | 0.00 | 14 | 1007.1 |
| 20260508220529 | 98 | 230 | 0.0 | 4.0 | 0.00 | 0.00 | 0.00 | 14 | 1007.2 |
| 20260508220029 | 98 | 265 | 1.0 | 10.0 | 0.00 | 0.00 | 0.00 | 13 | 1007.4 |
| 20260508215752 | 98 | 211 | 1.0 | 10.0 | 0.00 | 0.00 | 0.00 | 13 | 1007.4 |
| 20260508215029 | 98 | 207 | 1.0 | 9.0 | 0.00 | 0.00 | 0.00 | 14 | 1007.4 |
| 20260508214529 | 98 | 268 | 1.0 | 13.0 | 0.00 | 0.00 | 0.00 | 14 | 1007.5 |
| 20260508214517 | 97 | 186 | 1.0 | 13.0 | 0.00 | 0.00 | 0.00 | 14 | 1007.6 |
| 20260508213529 | 97 | 210 | 1.0 | 10.0 | 0.00 | 0.00 | 0.00 | 14 | 1007.6 |
| 20260508213031 | 97 | 212 | 1.0 | 10.0 | 0.00 | 0.00 | 0.00 | 14 | 1007.8 |
| 20260508212751 | 97 | 212 | 0.0 | 7.0 | 0.00 | 0.00 | 0.00 | 14 | 1008.0 |
| 20260508212258 | 96 | 257 | 0.0 | 8.0 | 0.00 | 0.00 | 0.00 | 14 | 1008.1 |
| 20260508211529 | 96 | 275 | 2.0 | 16.0 | 0.00 | 0.00 | 0.00 | 14 | 1008.2 |
| 20260508211253 | 97 | 187 | 2.0 | 16.0 | 0.00 | 0.00 | 0.00 | 14 | 1008.2 |
| 20260508210530 | 97 | 220 | 0.0 | 14.0 | 0.00 | 0.00 | 0.00 | 14 | 1008.3 |
| 20260508210029 | 96 | 219 | 0.0 | 10.0 | 0.00 | 0.00 | 0.00 | 14 | 1008.4 |
| 20260508205529 | 96 | 232 | 1.0 | 10.0 | 0.00 | 0.00 | 0.00 | 14 | 1008.4 |
| 20260508205029 | 96 | 211 | 1.0 | 8.0 | 0.00 | 0.00 | 0.00 | 14 | 1008.5 |
| 20260508204529 | 95 | 219 | 0.0 | 8.0 | 0.00 | 0.00 | 0.00 | 14 | 1008.6 |
| 20260508204253 | 95 | 199 | 0.0 | 7.0 | 0.00 | 0.00 | 0.00 | 14 | 1008.6 |
| 20260508203530 | 95 | 218 | 0.0 | 7.0 | 0.00 | 0.00 | 0.00 | 14 | 1008.7 |
| 20260508203030 | 95 | 258 | 1.0 | 7.0 | 0.00 | 0.00 | 0.00 | 14 | 1008.8 |
| 20260508202528 | 95 | 197 | 1.0 | 6.0 | 0.00 | 0.00 | 0.00 | 14 | 1008.9 |
| 20260508202029 | 95 | 232 | 0.0 | 5.0 | 0.00 | 0.00 | 0.00 | 14 | 1008.9 |
| 20260508201530 | 95 | 186 | 0.0 | 5.0 | 0.00 | 0.00 | 0.00 | 15 | 1009.0 |
| 20260508201029 | 95 | 234 | 0.0 | 3.0 | 0.00 | 0.00 | 0.00 | 15 | 1009.1 |
| 20260508200528 | 95 | 174 | 0.0 | 3.0 | 0.00 | 0.00 | 0.00 | 14 | 1009.1 |
| 20260508200029 | 94 | 203 | 0.0 | 1.0 | 0.00 | 0.00 | 0.00 | 15 | 1009.1 |
| 20260508195529 | 94 | 173 | 0.0 | 1.0 | 0.00 | 0.00 | 0.00 | 15 | 1009.2 |
| 20260508195030 | 93 | 112 | 0.0 | 0.0 | 0.00 | 0.00 | 0.00 | 15 | 1009.2 |
| 20260508194758 | 93 | 138 | 0.0 | 2.0 | 0.00 | 0.00 | 0.00 | 15 | 1009.2 |
| 20260508194029 | 93 | 253 | 0.0 | 2.0 | 0.00 | 0.00 | 0.00 | 15 | 1009.3 |
| 20260508193528 | 92 | 167 | 0.0 | 1.0 | 0.00 | 0.00 | 0.00 | 16 | 1009.4 |
| 20260508193029 | 92 | 205 | 0.0 | 2.0 | 0.00 | 0.00 | 0.00 | 16 | 1009.5 |
| 20260508192529 | 92 | 100 | 0.0 | 9.0 | 0.00 | 0.00 | 0.00 | 16 | 1009.6 |
| 20260508192522 | 92 | 182 | 0.0 | 9.0 | 0.00 | 0.00 | 0.00 | 16 | 1009.7 |
| 20260508191528 | 92 | 184 | 0.0 | 0.0 | 0.00 | 0.00 | 0.00 | 16 | 1009.8 |
| 20260508191029 | 92 | 237 | 0.0 | 1.0 | 0.00 | 0.00 | 0.00 | 16 | 1010.0 |
| 20260508190530 | 92 | 205 | 0.0 | 1.0 | 0.00 | 0.00 | 0.00 | 16 | 1010.0 |
| 20260508190029 | 91 | 183 | 0.0 | 0.0 | 0.00 | 0.00 | 0.00 | 17 | 1010.0 |
| 20260508185529 | 91 | 164 | 0.0 | 0.0 | 0.00 | 0.00 | 0.00 | 16 | 1010.0 |
| 20260508185029 | 91 | 203 | 0.0 | 1.0 | 0.00 | 0.00 | 0.00 | 16 | 1010.1 |
| 20260508184529 | 91 | 188 | 0.0 | 1.0 | 0.00 | 0.00 | 0.00 | 17 | 1010.2 |
| 20260508184030 | 90 | 130 | 0.0 | 1.0 | 0.00 | 0.00 | 0.00 | 16 | 1010.2 |
| 20260508183529 | 90 | 226 | 0.0 | 3.0 | 0.00 | 0.00 | 0.00 | 17 | 1010.4 |
| 20260508183029 | 90 | 194 | 0.0 | 3.0 | 0.00 | 0.00 | 0.00 | 17 | 1010.6 |
| 20260508182529 | 89 | 232 | 0.0 | 4.0 | 0.00 | 0.00 | 0.00 | 17 | 1010.6 |
| 20260508182029 | 89 | 216 | 0.0 | 4.0 | 0.00 | 0.00 | 0.00 | 17 | 1010.6 |
| 20260508181530 | 89 | 155 | 0.0 | 3.0 | 0.00 | 0.00 | 0.00 | 17 | 1010.7 |
| 20260508181028 | 89 | 144 | 0.0 | 5.0 | 0.00 | 0.00 | 0.00 | 17 | 1010.7 |
| 20260508180529 | 89 | 128 | 0.0 | 5.0 | 0.00 | 0.00 | 0.00 | 17 | 1010.7 |
| 20260508180030 | 89 | 136 | 0.0 | 0.0 | 0.00 | 0.00 | 0.00 | 18 | 1010.8 |
| 20260508175529 | 88 | 190 | 0.0 | 0.0 | 0.00 | 0.00 | 0.00 | 18 | 1010.9 |
| 20260508175030 | 88 | 146 | 0.0 | 0.0 | 0.00 | 0.00 | 0.00 | 18 | 1010.9 |
| 20260508174527 | 87 | 139 | 0.0 | 0.0 | 0.00 | 0.00 | 0.00 | 19 | 1010.9 |
| 20260508174020 | 87 | 177 | 0.0 | 9.0 | 0.00 | 0.00 | 0.00 | 19 | 1010.9 |
| 20260508173518 | 87 | 195 | 0.0 | 9.0 | 0.00 | 0.00 | 0.00 | 19 | 1010.9 |
| 20260508173239 | 87 | 229 | 0.0 | 1.0 | 0.00 | 0.00 | 0.00 | 19 | 1011.0 |
| 20260508172516 | 87 | 156 | 0.0 | 1.0 | 0.00 | 0.00 | 0.00 | 19 | 1011.1 |
| 20260508172017 | 86 | 184 | 0.0 | 1.0 | 0.00 | 0.00 | 0.00 | 20 | 1011.0 |
| 20260508171517 | 86 | 138 | 0.0 | 1.0 | 0.00 | 0.00 | 0.00 | 19 | 1011.0 |
| 20260508171017 | 86 | 182 | 0.0 | 1.0 | 0.00 | 0.00 | 0.00 | 19 | 1011.2 |
| 20260508170516 | 86 | 132 | 0.0 | 1.0 | 0.00 | 0.00 | 0.00 | 19 | 1011.3 |
| 20260508170015 | 86 | 192 | 0.0 | 0.0 | 0.00 | 0.00 | 0.00 | 19 | 1011.3 |
| 20260508165515 | 86 | 202 | 0.0 | 1.0 | 0.00 | 0.00 | 0.00 | 20 | 1011.2 |
| 20260508165015 | 86 | 213 | 0.0 | 1.0 | 0.00 | 0.00 | 0.00 | 20 | 1011.2 |
| 20260508164511 | 85 | 201 | 0.0 | 1.0 | 0.00 | 0.00 | 0.00 | 20 | 1011.3 |
| 20260508164232 | 85 | 154 | 0.0 | 0.0 | 0.00 | 0.00 | 0.00 | 20 | 1011.3 |
| 20260508163511 | 84 | 153 | 0.0 | 0.0 | 0.00 | 0.00 | 0.00 | 20 | 1011.2 |
| 20260508163011 | 84 | 155 | 0.0 | 0.0 | 0.00 | 0.00 | 0.00 | 20 | 1011.3 |
| 20260508162510 | 83 | 154 | 0.0 | 0.0 | 0.00 | 0.00 | 0.00 | 20 | 1011.3 |
| 20260508162458 | 84 | 150 | 0.0 | 0.0 | 0.00 | 0.00 | 0.00 | 21 | 1011.3 |
| 20260508161510 | 83 | 215 | 0.0 | 0.0 | 0.00 | 0.00 | 0.00 | 21 | 1011.3 |
| 20260508161010 | 83 | 197 | 0.0 | 0.0 | 0.00 | 0.00 | 0.00 | 22 | 1011.4 |
| 20260508160737 | 83 | 191 | 0.0 | 0.0 | 0.00 | 0.00 | 0.00 | 22 | 1011.4 |
| 20260508160010 | 83 | 199 | 0.0 | 0.0 | 0.00 | 0.00 | 0.00 | 22 | 1011.4 |
| 20260508155511 | 82 | 158 | 0.0 | 0.0 | 0.00 | 0.00 | 0.00 | 22 | 1011.4 |
| 20260508155010 | 82 | 134 | 0.0 | 0.0 | 0.00 | 0.00 | 0.00 | 22 | 1011.4 |
| 20260508154730 | 81 | 171 | 0.0 | 1.0 | 0.00 | 0.00 | 0.00 | 23 | 1011.3 |
| 20260508154009 | 81 | 167 | 0.0 | 1.0 | 0.00 | 0.00 | 0.00 | 23 | 1011.4 |
| 20260508153506 | 81 | 155 | 0.0 | 0.0 | 0.00 | 0.00 | 0.00 | 23 | 1011.3 |
| 20260508153006 | 81 | 142 | 0.0 | 5.0 | 0.00 | 0.00 | 0.00 | 23 | 1011.4 |
| 20260508152507 | 80 | 200 | 0.0 | 5.0 | 0.00 | 0.00 | 0.00 | 23 | 1011.3 |
| 20260508152005 | 80 | 175 | 0.0 | 2.0 | 0.00 | 0.00 | 0.00 | 23 | 1011.3 |
| 20260508151502 | 80 | 163 | 0.0 | 0.0 | 0.00 | 0.00 | 0.00 | 23 | 1011.3 |
| 20260508151001 | 80 | 188 | 0.0 | 0.0 | 0.00 | 0.00 | 0.00 | 23 | 1011.3 |
| 20260508150722 | 79 | 206 | 0.0 | 0.0 | 0.00 | 0.00 | 0.00 | 24 | 1011.3 |
| 20260508150001 | 79 | 201 | 0.0 | 0.0 | 0.00 | 0.00 | 0.00 | 24 | 1011.3 |
| 20260508145502 | 79 | 200 | 0.0 | 0.0 | 0.00 | 0.00 | 0.00 | 25 | 1011.2 |
| 20260508145001 | 78 | 105 | 0.0 | 0.0 | 0.00 | 0.00 | 0.00 | 25 | 1011.2 |
| 20260508144502 | 78 | 105 | 0.0 | 0.0 | 0.00 | 0.00 | 0.00 | 26 | 1011.2 |
| 20260508144000 | 78 | 104 | 0.0 | 0.0 | 0.00 | 0.00 | 0.00 | 26 | 1011.3 |
| 20260508143501 | 77 | 93 | 0.0 | 0.0 | 0.00 | 0.00 | 0.00 | 26 | 1011.2 |
| 20260508143222 | 77 | 92 | 0.0 | 0.0 | 0.00 | 0.00 | 0.00 | 26 | 1011.3 |
| 20260508142727 | 76 | 92 | 0.0 | 0.0 | 0.00 | 0.00 | 0.00 | 27 | 1011.2 |
| 20260508142001 | 76 | 92 | 0.0 | 0.0 | 0.00 | 0.00 | 0.00 | 27 | 1011.2 |
| 20260508141501 | 76 | 92 | 0.0 | 0.0 | 0.00 | 0.00 | 0.00 | 27 | 1011.2 |
| 20260508141001 | 75 | 92 | 0.0 | 0.0 | 0.00 | 0.00 | 0.00 | 28 | 1011.2 |
| 20260508140501 | 75 | 92 | 0.0 | 0.0 | 0.00 | 0.00 | 0.00 | 28 | 1011.1 |
| 20260508140001 | 75 | 92 | 0.0 | 0.0 | 0.00 | 0.00 | 0.00 | 29 | 1011.0 |
| 20260508135501 | 76 | 92 | 0.0 | 0.0 | 0.00 | 0.00 | 0.00 | 28 | 1011.0 |
| 20260508135224 | 75 | 85 | 0.0 | 3.0 | 0.00 | 0.00 | 0.00 | 26 | 1011.0 |
| 20260508134501 | 74 | 84 | 0.0 | 3.0 | 0.00 | 0.00 | 0.00 | 27 | 1011.0 |
| 20260508134000 | 73 | 26 | 0.0 | 3.0 | 0.00 | 0.00 | 0.00 | 28 | 1011.0 |
| 20260508133727 | 71 | 54 | 0.0 | 1.0 | 0.00 | 0.00 | 0.00 | 30 | 1010.8 |
| 20260508133001 | 70 | 280 | 0.0 | 0.0 | 0.00 | 0.00 | 0.00 | 31 | 1010.8 |
| 20260508132458 | 70 | 280 | 0.0 | 0.0 | 0.00 | 0.00 | 0.00 | 30 | 1010.8 |
| 20260508131951 | 70 | 280 | 0.0 | 0.0 | 0.00 | 0.00 | 0.00 | 29 | 1010.7 |
| 20260508131708 | 70 | 280 | 0.0 | 0.0 | 0.00 | 0.00 | 0.00 | 28 | 1010.6 |
| 20260508130940 | 70 | 280 | 0.0 | 0.0 | 0.00 | 0.00 | 0.00 | 28 | 1010.4 |
| 20260508130702 | 69 | 280 | 0.0 | 0.0 | 0.00 | 0.00 | 0.00 | 27 | 1010.3 |
| 20260508125938 | 69 | 280 | 0.0 | 0.0 | 0.00 | 0.00 | 0.00 | 27 | 1010.2 |
| 20260508125436 | 69 | 280 | 0.0 | 0.0 | 0.00 | 0.00 | 0.00 | 27 | 1010.2 |
| 20260508124936 | 69 | 280 | 0.0 | 0.0 | 0.00 | 0.00 | 0.00 | 27 | 1010.1 |
| 20260508124436 | 69 | 280 | 0.0 | 0.0 | 0.00 | 0.00 | 0.00 | 27 | 1010.1 |
| 20260508123936 | 69 | 280 | 0.0 | 0.0 | 0.00 | 0.00 | 0.00 | 27 | 1010.0 |
| 20260508123437 | 69 | 280 | 0.0 | 0.0 | 0.00 | 0.00 | 0.00 | 27 | 1009.9 |
| 20260508122936 | 68 | 280 | 0.0 | 0.0 | 0.00 | 0.00 | 0.00 | 28 | 1009.8 |
| 20260508122436 | 68 | 280 | 0.0 | 0.0 | 0.00 | 0.00 | 0.00 | 27 | 1009.8 |
| 20260508121934 | 69 | 280 | 0.0 | 0.0 | 0.00 | 0.00 | 0.00 | 27 | 1009.7 |
| 20260508121433 | 69 | 280 | 0.0 | 0.0 | 0.00 | 0.00 | 0.00 | 27 | 1009.7 |
| 20260508120932 | 69 | 280 | 0.0 | 0.0 | 0.00 | 0.00 | 0.00 | 26 | 1009.6 |
| 20260508120432 | 69 | 280 | 0.0 | 0.0 | 0.00 | 0.00 | 0.00 | 27 | 1009.6 |
| 20260508115932 | 69 | 280 | 0.0 | 0.0 | 0.00 | 0.00 | 0.00 | 26 | 1009.5 |
| 20260508115432 | 69 | 280 | 0.0 | 0.0 | 0.00 | 0.00 | 0.00 | 27 | 1009.5 |
| 20260508114929 | 69 | 280 | 0.0 | 0.0 | 0.00 | 0.00 | 0.00 | 27 | 1009.5 |
| 20260508114430 | 69 | 280 | 0.0 | 0.0 | 0.00 | 0.00 | 0.00 | 26 | 1009.5 |
| 20260508113929 | 69 | 280 | 0.0 | 0.0 | 0.00 | 0.00 | 0.00 | 26 | 1009.4 |
| 20260508113431 | 69 | 262 | 0.0 | 0.0 | 0.00 | 0.00 | 0.00 | 26 | 1009.4 |
| 20260508112929 | 69 | 250 | 0.0 | 0.0 | 0.00 | 0.00 | 0.00 | 26 | 1009.4 |
| 20260508112430 | 69 | 196 | 0.0 | 0.0 | 0.00 | 0.00 | 0.00 | 26 | 1009.3 |
| 20260508111930 | 69 | 196 | 0.0 | 0.0 | 0.00 | 0.00 | 0.00 | 26 | 1009.4 |
| 20260508111429 | 70 | 196 | 0.0 | 0.0 | 0.00 | 0.00 | 0.00 | 26 | 1009.4 |
| 20260508110929 | 70 | 196 | 0.0 | 0.0 | 0.00 | 0.00 | 0.00 | 26 | 1009.4 |
| 20260508110428 | 70 | 196 | 0.0 | 0.0 | 0.00 | 0.00 | 0.00 | 27 | 1009.5 |
| 20260508105929 | 70 | 196 | 0.0 | 0.0 | 0.00 | 0.00 | 0.00 | 27 | 1009.4 |
| 20260508105429 | 71 | 196 | 0.0 | 0.0 | 0.00 | 0.00 | 0.00 | 26 | 1009.3 |
| 20260508104928 | 71 | 234 | 0.0 | 0.0 | 0.00 | 0.00 | 0.00 | 26 | 1009.4 |
| 20260508104427 | 71 | 234 | 0.0 | 0.0 | 0.00 | 0.00 | 0.00 | 25 | 1009.3 |
| 20260508103926 | 72 | 234 | 0.0 | 0.0 | 0.00 | 0.00 | 0.00 | 25 | 1009.4 |
| 20260508103423 | 72 | 234 | 0.0 | 0.0 | 0.00 | 0.00 | 0.00 | 25 | 1009.3 |
| 20260508103412 | 71 | 234 | 0.0 | 0.0 | 0.00 | 0.00 | 0.00 | 25 | 1009.3 |
| 20260508102424 | 72 | 234 | 0.0 | 0.0 | 0.00 | 0.00 | 0.00 | 26 | 1009.4 |
| 20260508101924 | 72 | 167 | 0.0 | 0.0 | 0.00 | 0.00 | 0.00 | 25 | 1009.3 |
| 20260508101422 | 73 | 167 | 0.0 | 0.0 | 0.00 | 0.00 | 0.00 | 25 | 1009.4 |
| 20260508100922 | 73 | 167 | 0.0 | 0.0 | 0.00 | 0.00 | 0.00 | 24 | 1009.3 |
| 20260508100416 | 74 | 167 | 0.0 | 0.0 | 0.00 | 0.00 | 0.00 | 24 | 1009.3 |
| 20260508095912 | 75 | 167 | 0.0 | 0.0 | 0.00 | 0.00 | 0.00 | 23 | 1009.3 |
| 20260508095410 | 75 | 167 | 0.0 | 0.0 | 0.00 | 0.00 | 0.00 | 23 | 1009.2 |
| 20260508095128 | 76 | 167 | 0.0 | 0.0 | 0.00 | 0.00 | 0.00 | 22 | 1009.2 |
| 20260508094408 | 76 | 167 | 0.0 | 0.0 | 0.00 | 0.00 | 0.00 | 22 | 1009.2 |
| 20260508093908 | 77 | 167 | 0.0 | 0.0 | 0.00 | 0.00 | 0.00 | 22 | 1009.2 |
| 20260508093839 | 78 | 167 | 0.0 | 0.0 | 0.00 | 0.00 | 0.00 | 21 | 1009.1 |
| 20260508093605 | 77 | 167 | 0.0 | 0.0 | 0.00 | 0.00 | 0.00 | 21 | 1009.1 |
| 20260508092406 | 78 | 167 | 0.0 | 0.0 | 0.00 | 0.00 | 0.00 | 21 | 1009.1 |
| 20260508091905 | 79 | 167 | 0.0 | 0.0 | 0.00 | 0.00 | 0.00 | 20 | 1009.0 |
| 20260508091406 | 79 | 167 | 0.0 | 0.0 | 0.00 | 0.00 | 0.00 | 20 | 1009.0 |
| 20260508090906 | 80 | 167 | 0.0 | 0.0 | 0.00 | 0.00 | 0.00 | 20 | 1009.0 |
| 20260508090401 | 80 | 167 | 0.0 | 0.0 | 0.00 | 0.00 | 0.00 | 20 | 1009.0 |
| 20260508085902 | 80 | 167 | 0.0 | 0.0 | 0.00 | 0.00 | 0.00 | 19 | 1009.0 |
| 20260508085402 | 80 | 167 | 0.0 | 0.0 | 0.00 | 0.00 | 0.00 | 19 | 1009.0 |
| 20260508085120 | 81 | 171 | 0.0 | 0.0 | 0.00 | 0.00 | 0.00 | 19 | 1009.1 |
| 20260508084402 | 81 | 202 | 0.0 | 0.0 | 0.00 | 0.00 | 0.00 | 19 | 1009.1 |
| 20260508083901 | 81 | 202 | 0.0 | 0.0 | 0.00 | 0.00 | 0.00 | 19 | 1009.1 |
| 20260508083401 | 81 | 202 | 0.0 | 0.0 | 0.00 | 0.00 | 0.00 | 19 | 1009.1 |
| 20260508083130 | 80 | 202 | 0.0 | 0.0 | 0.00 | 0.00 | 0.00 | 19 | 1009.2 |
| 20260508082402 | 80 | 202 | 0.0 | 0.0 | 0.00 | 0.00 | 0.00 | 19 | 1009.2 |
| 20260508081901 | 80 | 202 | 0.0 | 0.0 | 0.00 | 0.00 | 0.00 | 19 | 1009.2 |
| 20260508081401 | 81 | 202 | 0.0 | 0.0 | 0.00 | 0.00 | 0.00 | 19 | 1009.2 |
| 20260508080901 | 81 | 207 | 0.0 | 0.0 | 0.00 | 0.00 | 0.00 | 19 | 1009.2 |
| 20260508080401 | 81 | 207 | 0.0 | 0.0 | 0.00 | 0.00 | 0.00 | 18 | 1009.2 |
| 20260508075902 | 81 | 207 | 0.0 | 0.0 | 0.00 | 0.00 | 0.00 | 18 | 1009.3 |
| 20260508075401 | 81 | 207 | 0.0 | 0.0 | 0.00 | 0.00 | 0.00 | 18 | 1009.3 |
| 20260508074901 | 81 | 207 | 0.0 | 0.0 | 0.00 | 0.00 | 0.00 | 18 | 1009.2 |
| 20260508074841 | 81 | 207 | 0.0 | 0.0 | 0.00 | 0.00 | 0.00 | 18 | 1009.3 |
| 20260508074123 | 81 | 207 | 0.0 | 0.0 | 0.00 | 0.00 | 0.00 | 18 | 1009.2 |
| 20260508073401 | 81 | 207 | 0.0 | 0.0 | 0.00 | 0.00 | 0.00 | 18 | 1009.3 |
| 20260508072901 | 81 | 207 | 0.0 | 0.0 | 0.00 | 0.00 | 0.00 | 18 | 1009.3 |
| 20260508072403 | 81 | 207 | 0.0 | 0.0 | 0.00 | 0.00 | 0.00 | 18 | 1009.2 |
| 20260508071902 | 81 | 207 | 0.0 | 0.0 | 0.00 | 0.00 | 0.00 | 17 | 1009.3 |
| 20260508071401 | 81 | 207 | 0.0 | 0.0 | 0.00 | 0.00 | 0.00 | 17 | 1009.2 |
| 20260508071339 | 81 | 206 | 0.0 | 0.0 | 0.00 | 0.00 | 0.00 | 17 | 1009.1 |
| 20260508070402 | 81 | 206 | 0.0 | 0.0 | 0.00 | 0.00 | 0.00 | 17 | 1009.0 |
| 20260508065901 | 81 | 207 | 0.0 | 0.0 | 0.00 | 0.00 | 0.00 | 17 | 1009.0 |
| 20260508065402 | 81 | 206 | 0.0 | 0.0 | 0.00 | 0.00 | 0.00 | 17 | 1008.9 |
| 20260508064901 | 82 | 206 | 0.0 | 0.0 | 0.00 | 0.00 | 0.00 | 16 | 1008.9 |
| 20260508064401 | 82 | 206 | 0.0 | 0.0 | 0.00 | 0.00 | 0.00 | 16 | 1008.9 |
| 20260508064126 | 82 | 206 | 0.0 | 0.0 | 0.00 | 0.00 | 0.00 | 16 | 1009.0 |
| 20260508063620 | 82 | 206 | 0.0 | 0.0 | 0.00 | 0.00 | 0.00 | 16 | 1009.1 |
| 20260508062900 | 82 | 206 | 0.0 | 0.0 | 0.00 | 0.00 | 0.00 | 16 | 1009.0 |
| 20260508062402 | 82 | 206 | 0.0 | 0.0 | 0.00 | 0.00 | 0.00 | 16 | 1009.0 |
| 20260508061901 | 82 | 206 | 0.0 | 2.0 | 0.00 | 0.00 | 0.00 | 15 | 1009.0 |
| 20260508061402 | 82 | 206 | 0.0 | 2.0 | 0.00 | 0.00 | 0.00 | 15 | 1009.1 |
| 20260508060901 | 82 | 206 | 0.0 | 0.0 | 0.00 | 0.00 | 0.00 | 15 | 1009.1 |
| 20260508060402 | 82 | 206 | 0.0 | 0.0 | 0.00 | 0.00 | 0.00 | 15 | 1009.1 |
| 20260508055900 | 82 | 207 | 0.0 | 0.0 | 0.00 | 0.00 | 0.00 | 15 | 1009.1 |
| 20260508055402 | 82 | 207 | 0.0 | 0.0 | 0.00 | 0.00 | 0.00 | 14 | 1009.0 |
| 20260508054859 | 83 | 207 | 0.0 | 0.0 | 0.00 | 0.00 | 0.00 | 14 | 1009.0 |
| 20260508054353 | 83 | 207 | 0.0 | 0.0 | 0.00 | 0.00 | 0.00 | 14 | 1009.0 |
| 20260508054111 | 83 | 207 | 0.0 | 0.0 | 0.00 | 0.00 | 0.00 | 14 | 1009.0 |
| 20260508053600 | 83 | 207 | 0.0 | 0.0 | 0.00 | 0.00 | 0.00 | 14 | 1009.0 |
| 20260508053054 | 83 | 207 | 0.0 | 0.0 | 0.00 | 0.00 | 0.00 | 14 | 1009.0 |
| 20260508052336 | 84 | 207 | 0.0 | 0.0 | 0.00 | 0.00 | 0.00 | 13 | 1009.0 |
| 20260508052329 | 84 | 207 | 0.0 | 0.0 | 0.00 | 0.00 | 0.00 | 13 | 1009.0 |
| 20260508051334 | 84 | 207 | 0.0 | 0.0 | 0.00 | 0.00 | 0.00 | 13 | 1009.0 |
| 20260508051055 | 84 | 207 | 0.0 | 0.0 | 0.00 | 0.00 | 0.00 | 13 | 1008.9 |
| 20260508050334 | 84 | 207 | 0.0 | 0.0 | 0.00 | 0.00 | 0.00 | 13 | 1009.0 |
| 20260508045832 | 84 | 207 | 0.0 | 0.0 | 0.00 | 0.00 | 0.00 | 13 | 1008.9 |
| 20260508045555 | 85 | 207 | 0.0 | 0.0 | 0.00 | 0.00 | 0.00 | 13 | 1008.9 |
| 20260508044832 | 85 | 207 | 0.0 | 0.0 | 0.00 | 0.00 | 0.00 | 13 | 1008.8 |
| 20260508044330 | 85 | 207 | 0.0 | 0.0 | 0.00 | 0.00 | 0.00 | 13 | 1008.8 |
| 20260508043829 | 85 | 205 | 0.0 | 0.0 | 0.00 | 0.00 | 0.00 | 12 | 1008.8 |
| 20260508043330 | 85 | 204 | 0.0 | 0.0 | 0.00 | 0.00 | 0.00 | 12 | 1008.8 |
| 20260508042829 | 85 | 204 | 0.0 | 0.0 | 0.00 | 0.00 | 0.00 | 12 | 1008.7 |
| 20260508042329 | 85 | 204 | 0.0 | 0.0 | 0.00 | 0.00 | 0.00 | 12 | 1008.7 |
| 20260508041829 | 85 | 204 | 0.0 | 0.0 | 0.00 | 0.00 | 0.00 | 12 | 1008.7 |
| 20260508041330 | 85 | 204 | 0.0 | 0.0 | 0.00 | 0.00 | 0.00 | 12 | 1008.6 |
| 20260508041055 | 85 | 204 | 0.0 | 0.0 | 0.00 | 0.00 | 0.00 | 12 | 1008.5 |